Content
SEND FEEDBACK

Daily
Averages
Monthly
Summary
Canada

VANCOUVER, BRITISH COLUMBIA


Home > North America > Canada > British Columbia
Elevation: 2 meters     Latitude: 49 11N     Longitude: 123 10W

WEATHER
 
SELECT A DAY
Number of Records: 253,227;   Date Range: 5/15/97 - 10/29/14
 
SHARE

PRINT THIS DATA

[ ← Previous Day ]
WEATHER ALMANAC - 23 JULY, 2013
[ Next Day → ]
[ °F ]   °C
Weather ElementAverageHighLow
Temperature17.2 °C24 °C (4:15 pm)12 °C (4:55 am)
Dewpoint12.7 °C15 °C (1:55 pm)11 °C (7:35 pm)
Humidity77.3 %100 % (4:55 am)47 % (4:35 pm)
Barometer1016.6 hPa1018.3 hPa (8:35 am)1014.6 hPa (7:35 pm)
Wind Speed6.1 km/h16.7 km/h (8:35 pm)
Weather ElementAverage
Visibility15.3 km
Wind DirectionESE (107.6 °)

Weather ElementTotal
Precipitation---
Heating Degree Days0.3 (Base 18.3)
Growing Degree Days8 (Base 10)
Averaged from 70 records on 23 July, 2013
WEATHER CONDITIONS BREAKOUT
WIND DIRECTION BREAKOUT
WEATHER BY HOUR - 23 JULY, 2013
[ °F ]   °C
Local TimeTemperatureDewpointHumidityBarometerVisibilityWind DirectionWind SpeedGust SpeedPrecipitationEventsConditions
12:35 AM15 °C13 °C88 %1016.6 hPa14.5 kmCalmClear
12:55 AM14 °C13 °C94 %1016.6 hPa14.5 kmNorthClear
1:15 AM14 °C13 °C94 %1016.9 hPa14.5 kmSouth (170°)5.6 km/hClear
1:35 AM14 °C13 °C94 %1016.6 hPa14.5 kmSouth (170°)5.6 km/hClear
1:55 AM14 °C13 °C94 %1016.6 hPa12.9 kmSouth (170°)5.6 km/hClear
2:15 AM14 °C13 °C94 %1016.9 hPa14.5 kmSouth (170°)7.4 km/hClear
2:35 AM13 °C12 °C94 %1016.9 hPa16.1 kmSSE (160°)7.4 km/hClear
2:55 AM13 °C12 °C94 %1016.6 hPa16.1 kmSSE (160°)9.3 km/hClear
3:15 AM13 °C12 °C94 %1016.9 hPa16.1 kmNorthClear
3:35 AM13 °C12 °C94 %1016.9 hPa16.1 kmSouth (170°)5.6 km/hClear
3:55 AM13 °C12 °C94 %1016.9 hPa16.1 kmSouth (180°)9.3 km/hClear
4:15 AM13 °C12 °C94 %1017.3 hPa16.1 kmNorthClear
4:35 AM13 °C12 °C94 %1017.3 hPa16.1 kmCalmClear
4:55 AM12 °C12 °C100 %1017.3 hPa16.1 kmSouth (170°)5.6 km/hClear
5:15 AM12 °C12 °C100 %1017.3 hPa16.1 kmNorthClear
5:35 AM12 °C12 °C100 %1017.6 hPa14.5 kmCalmClear
5:55 AM12 °C12 °C100 %1017.6 hPa12.9 kmCalmClear
6:15 AM12 °C12 °C100 %1017.6 hPa12.9 kmNorthClear
6:35 AM12 °C12 °C100 %1017.9 hPa14.5 kmNorthClear
6:55 AM13 °C12 °C94 %1017.9 hPa12.9 kmCalmClear
7:15 AM13 °C12 °C94 %1017.9 hPa16.1 kmCalmClear
7:35 AM14 °C12 °C88 %1017.9 hPa14.5 kmCalmClear
7:55 AM14 °C13 °C94 %1017.9 hPa14.5 kmSSW (200°)7.4 km/hClear
8:15 AM14 °C13 °C94 %1017.9 hPa14.5 kmCalmClear
8:35 AM14 °C13 °C94 %1018.3 hPa12.9 kmCalmClear
8:55 AM15 °C13 °C88 %1018.3 hPa16.1 kmCalmClear
9:15 AM15 °C13 °C88 %1017.9 hPa16.1 kmCalmClear
9:35 AM15 °C13 °C88 %1018.3 hPa14.5 kmCalmClear
9:55 AM15 °C13 °C88 %1017.9 hPa14.5 kmCalmClear
10:15 AM15 °C13 °C88 %1017.9 hPa16.1 kmNorth (10°)7.4 km/hClear
10:35 AM16 °C13 °C82 %1017.9 hPa14.5 kmNorth (360°)7.4 km/hClear
10:55 AM17 °C13 °C77 %1017.9 hPa16.1 kmCalmClear
11:15 AM19 °C14 °C73 %1017.6 hPa14.5 kmNorth (360°)5.6 km/hClear
11:35 AM19 °C14 °C73 %1017.6 hPa16.1 kmCalmClear
11:55 AM19 °C14 °C73 %1017.6 hPa14.5 kmNorth (360°)7.4 km/hClear
12:15 PM19 °C14 °C73 %1017.6 hPa12.9 kmNorth (10°)9.3 km/hClear
12:35 PM19 °C14 °C73 %1017.3 hPa16.1 kmNorth (10°)9.3 km/hClear
1:15 PM20 °C14 °C68 %1016.9 hPa16.1 kmNorth (10°)7.4 km/hClear
1:35 PM19 °C14 °C73 %1016.9 hPa14.5 kmNorth (10°)9.3 km/hClear
1:55 PM20 °C15 °C73 %1016.9 hPa14.5 kmNorth (360°)7.4 km/hClear
2:15 PM20 °C15 °C73 %1016.6 hPa16.1 kmNorth (10°)7.4 km/hClear
2:35 PM20 °C14 °C68 %1016.6 hPa14.5 kmNorth (10°)7.4 km/hClear
2:55 PM21 °C14 °C64 %1016.3 hPa14.5 kmNorth (10°)7.4 km/hClear
3:15 PM23 °C13 °C53 %1016.3 hPa16.1 kmNorth (360°)7.4 km/hClear
3:35 PM23 °C14 °C57 %1015.9 hPa16.1 kmNorth (10°)5.6 km/hClear
3:55 PM22 °C14 °C60 %1015.9 hPa16.1 kmNorth (10°)7.4 km/hClear
4:15 PM24 °C13 °C50 %1015.6 hPa16.1 kmNorth (350°)9.3 km/hClear
4:35 PM24 °C12 °C47 %1015.6 hPa16.1 kmNorth (350°)7.4 km/hClear
4:55 PM22 °C13 °C57 %1015.6 hPa16.1 kmCalmClear
5:15 PM22 °C13 °C57 %1015.2 hPa16.1 kmNorthClear
5:35 PM22 °C14 °C60 %1014.9 hPa16.1 kmCalmClear
5:55 PM22 °C13 °C57 %1014.9 hPa16.1 kmCalmClear
6:15 PM22 °C13 °C57 %1014.9 hPa16.1 kmSSW (200°)11.1 km/hClear
6:35 PM23 °C13 °C53 %1014.9 hPa16.1 kmSouth (170°)7.4 km/hClear
6:55 PM23 °C13 °C53 %1014.9 hPa16.1 kmSouth (180°)9.3 km/hClear
7:15 PM23 °C12 °C50 %1014.9 hPa16.1 kmSouth (190°)14.8 km/hClear
7:35 PM22 °C11 °C50 %1014.6 hPa16.1 kmSouth (190°)13 km/hClear
7:55 PM22 °C11 °C50 %1014.6 hPa16.1 kmSouth (190°)14.8 km/hClear
8:15 PM21 °C12 °C56 %1014.6 hPa16.1 kmSouth (190°)13 km/hClear
8:35 PM20 °C12 °C60 %1014.6 hPa14.5 kmSouth (180°)16.7 km/hClear
8:55 PM19 °C12 °C64 %1014.6 hPa16.1 kmSouth (180°)13 km/hClear
9:15 PM18 °C12 °C68 %1014.9 hPa14.5 kmSouth (170°)11.1 km/hClear
9:35 PM18 °C12 °C68 %1014.9 hPa16.1 kmSouth (170°)5.6 km/hClear
9:55 PM17 °C12 °C72 %1015.2 hPa16.1 kmSSE (160°)5.6 km/hClear
10:15 PM17 °C12 °C72 %1015.2 hPa16.1 kmSouth (170°)7.4 km/hClear
10:35 PM17 °C12 °C72 %1015.2 hPa16.1 kmSouth (170°)7.4 km/hClear
10:55 PM17 °C12 °C72 %1015.2 hPa16.1 kmSSE (160°)7.4 km/hClear
11:15 PM16 °C12 °C77 %1015.2 hPa16.1 kmSouth (170°)5.6 km/hClear
11:35 PM15 °C12 °C82 %1015.6 hPa16.1 kmSouth (180°)9.3 km/hClear
11:55 PM15 °C12 °C82 %1015.6 hPa16.1 kmSouth (190°)9.3 km/hClear
Hourly data recorded from CZBB, located 0 kilometers away from Vancouver, British Columbia







STORIES FROM OUR PARTNERS